Simultaneous Nadir Overpasses (SNOs) Predictions

Prediction of SNOs between FY3D and METOP-A Satellite Orbit:

Table of predicted SNOs for the next 14.0 days since TLE Epoch: 5/4/2019
Index Date (FY3D) Time (FY3D) Lat,Lon (FY3D) SZA (FY3D ) Date (METOP-A) Time (METOP-A) Lat,Lon (METOP-A) SZA (METOP-A ) Distance(km) Time Diff (sec)
1 05/08/2019 00:30:18 75.10, 159.88 58.41 05/08/2019 00:31:23 75.08, 163.24 58.20 96.11 65
2 05/08/2019 01:21:00 -75.04, -32.61 121.68 05/08/2019 01:22:07 -74.98, -29.71 121.90 83.90 67
3 05/08/2019 02:11:41 74.81, 135.35 58.05 05/08/2019 02:12:51 74.75, 137.02 57.90 48.92 70
4 05/08/2019 03:02:23 -74.74, -57.16 122.03 05/08/2019 03:03:34 -74.71, -55.79 122.16 40.28 71
5 05/08/2019 03:53:04 74.51, 110.79 57.69 05/08/2019 03:54:18 74.48, 110.95 57.64 5.76 74
6 05/08/2019 04:43:47 -74.49, -81.86 122.33 05/08/2019 04:45:00 -74.48, -81.72 122.37 4.28 73
7 05/08/2019 05:34:32 74.45, 85.57 57.61 05/08/2019 05:35:40 74.45, 85.53 57.60 1.18 68
8 05/08/2019 06:25:15 -74.44,-107.08 122.42 05/08/2019 06:26:22 -74.45,-107.14 122.42 2.32 67
9 05/08/2019 07:16:01 74.44, 60.22 57.58 05/08/2019 07:17:01 74.46, 60.23 57.59 2.58 60
10 05/08/2019 08:06:45 -74.48,-132.56 122.39 05/08/2019 08:07:43 -74.47,-132.44 122.42 3.73 58
11 05/08/2019 08:57:30 74.43, 34.87 57.55 05/08/2019 08:58:23 74.43, 34.81 57.55 1.60 53
12 05/08/2019 09:48:13 -74.42,-157.78 122.47 05/08/2019 09:49:05 -74.43,-157.86 122.47 2.89 52
13 05/08/2019 10:38:59 74.42, 9.52 57.53 05/08/2019 10:39:44 74.45, 9.52 57.54 2.82 45
14 05/08/2019 11:29:43 -74.46, 176.75 122.45 05/08/2019 11:30:26 -74.45, 176.85 122.47 3.19 43
15 05/08/2019 12:20:28 74.42, -15.83 57.50 05/08/2019 12:21:06 74.42, -15.90 57.50 2.09 38
16 05/08/2019 13:11:11 -74.40, 151.52 122.53 05/08/2019 13:11:48 -74.42, 151.43 122.52 3.45 37
17 05/08/2019 14:01:57 74.41, -41.18 57.47 05/08/2019 14:02:27 74.44, -41.20 57.49 3.14 30
18 05/08/2019 14:52:41 -74.44, 126.05 122.51 05/08/2019 14:53:09 -74.44, 126.13 122.52 2.66 28
19 05/08/2019 15:43:26 74.40, -66.53 57.44 05/08/2019 15:43:49 74.40, -66.62 57.44 2.60 23
20 05/08/2019 16:34:10 -74.43, 100.70 122.53 05/08/2019 16:34:31 -74.41, 100.71 122.57 3.14 21
21 05/08/2019 17:24:55 74.39, -91.88 57.41 05/08/2019 17:25:10 74.42, -91.91 57.44 3.51 15
22 05/08/2019 18:15:39 -74.43, 75.35 122.56 05/08/2019 18:15:52 -74.42, 75.42 122.57 2.15 13
23 05/08/2019 19:06:24 74.38,-117.23 57.38 05/08/2019 19:06:32 74.39,-117.33 57.39 3.12 8
24 05/08/2019 19:57:08 -74.42, 50.00 122.59 05/08/2019 19:57:14 -74.39, 50.00 122.62 2.79 6
25 05/08/2019 20:47:54 74.42,-142.71 57.41 05/08/2019 20:47:53 74.41,-142.63 57.39 2.99 1
26 05/08/2019 21:38:37 -74.41, 24.65 122.62 05/08/2019 21:38:35 -74.41, 24.70 122.62 1.68 2
27 05/08/2019 22:29:22 74.37,-167.93 57.33 05/08/2019 22:29:15 74.38,-168.05 57.34 3.64 7
28 05/08/2019 23:20:06 -74.40, -0.70 122.65 05/08/2019 23:19:57 -74.38, -0.72 122.67 2.51 9
29 05/09/2019 00:10:52 74.41, 166.59 57.35 05/09/2019 00:10:36 74.39, 166.66 57.34 2.45 16
30 05/09/2019 01:01:35 -74.39, -26.05 122.68 05/09/2019 01:01:18 -74.40, -26.01 122.67 1.29 17
31 05/09/2019 01:52:21 74.40, 141.24 57.33 05/09/2019 01:51:57 74.41, 141.36 57.34 3.87 24
32 05/09/2019 02:43:04 -74.38, -51.40 122.70 05/09/2019 02:42:40 -74.36, -51.43 122.72 2.34 24
33 05/09/2019 03:33:50 74.39, 115.89 57.30 05/09/2019 03:33:19 74.38, 115.94 57.29 1.91 31
34 05/09/2019 04:24:33 -74.38, -76.75 122.73 05/09/2019 04:24:01 -74.38, -76.73 122.72 1.05 32
35 05/09/2019 05:15:19 74.38, 90.54 57.27 05/09/2019 05:14:40 74.40, 90.65 57.29 3.57 39
36 05/09/2019 06:06:02 -74.37,-102.10 122.76 05/09/2019 06:05:23 -74.35,-102.15 122.77 2.28 39
37 05/09/2019 06:56:48 74.37, 65.19 57.24 05/09/2019 06:56:02 74.37, 65.23 57.24 1.38 46
38 05/09/2019 07:47:31 -74.36,-127.45 122.79 05/09/2019 07:46:44 -74.37,-127.44 122.77 1.07 47
39 05/09/2019 08:38:17 74.37, 39.84 57.21 05/09/2019 08:37:23 74.38, 39.93 57.24 3.34 54
40 05/09/2019 09:29:00 -74.35,-152.80 122.82 05/09/2019 09:28:06 -74.34,-152.86 122.82 2.36 54
41 05/09/2019 10:19:46 74.36, 14.49 57.19 05/09/2019 10:18:45 74.35, 14.51 57.19 0.85 61
42 05/09/2019 11:10:29 -74.34,-178.15 122.84 05/09/2019 11:09:27 -74.35,-178.16 122.82 1.33 62
43 05/09/2019 12:01:15 74.35, -10.86 57.16 05/09/2019 12:00:06 74.37, -10.78 57.19 3.18 69
44 05/09/2019 12:51:58 -74.33, 156.50 122.87 05/09/2019 12:50:49 -74.32, 156.42 122.86 2.54 69
45 05/09/2019 13:42:43 74.29, -36.08 57.07 05/09/2019 13:41:29 74.29, -36.33 57.10 7.39 74
46 05/09/2019 14:33:26 -74.28, 131.27 122.96 05/09/2019 14:32:12 -74.24, 130.88 122.95 12.40 74
47 05/09/2019 15:24:06 73.99, -60.70 56.72 05/09/2019 15:22:56 74.01, -62.35 56.84 50.90 70
48 05/09/2019 16:14:49 -73.97, 106.66 123.31 05/09/2019 16:13:39 -73.96, 104.86 123.21 55.08 70
49 05/09/2019 17:05:29 73.68, -85.33 56.36 05/09/2019 17:04:24 73.68, -88.47 56.55 98.08 65
50 05/09/2019 17:56:12 -73.67, 82.01 123.66 05/09/2019 17:55:06 -73.68, 78.87 123.46 98.38 66




NCC Satellite Simultaneous Nadir Overpasses (SNOs) Prediction Service
